Tracking 19145 objects as of 25-Apr-2018
HD Live streaming from Space Station
objects crossing your sky now

FENGYUN 1C DEB

Track FENGYUN 1C DEB now!
10-day predictions


NORAD ID: 30752
Int'l Code: 1999-025ATN
Perigee: 768.0 km
Apogee: 805.3 km
Inclination: 98.9 °
Period: 100.4 minutes
Semi major axis: 7157 km
RCS: 0.023 m2 (small)
Launch date: May 10, 1999
Source: People's Republic of China (PRC)
Launch site: Taiyaun Space Center, China (TSC)

Note: This is SATELLITE DEBRIS
aabbcc
Your satellite tracking list
Your tracking list is empty




NASA's NSSDC Master Catalog

Two Line Element Set (TLE):
1 30752U 99025ATN 18114.74674235  .00002244  00000-0  82274-3 0  9993
2 30752  98.8780 189.8412 0026056 280.9495 195.2843 14.33668337579386
Source of the keplerian elements: AFSPC